www.pogodaiklimat.ru

Погода и климат >> Архив погоды >> Россия >> Магаданская область >> Остров Спафарьева


ПОГОДА на Остров Спафарьева

  • Прогноз погоды на Остров Спафарьева
  • Монитор погоды на Остров Спафарьева
  • Климат города

АРХИВ ПОГОДЫ на Остров Спафарьева

Время (UTC), дата Ветер
(напр.,м/с)
 
Видим.   Явления Облачность Т
(С)
Тd
(С)
f
(%)
Тe
(С)
Тes
(С)
Комфортность P
(гПа)
Po
(гПа)
Тmin
(С)
Tmax
(С)
R
(мм)
R24
(мм)
S
(см)
15 17.06 Ю 2 50 км 10/10 200 м
[St]
+6.2 +5.8 97 +4 +4 1014.8 1008.3
18 17.06 штиль 0 500 м туман ?/? +6.3 +6.0 98 +5 +5 1014.7 1008.3
21 17.06 штиль 0 2000 м морось {туман} 10/10 200 м
[St]
+6.9 +6.8 99 +6 +6 1014.9 1008.5 +5.9 0.3
00 18.06 В 3 50 км {морось, туман} 10/10 200 м
[St]
+8.4 +7.8 96 +6 +6 1014.7 1008.3
03 18.06 Ю 1 50 км 10/10 200 м
[St]
+7.5 +7.2 98 +6 +6 1014.5 1008.2
06 18.06 З 2 50 км 10/10 300 м
[St]
+9.1 +7.4 89 +7 +7 1014.2 1007.8
09 18.06 З 2 50 км 10/10 300 м
[St]
+7.7 +6.8 94 +6 +6 1014.1 1007.7 +9.2 0.1
12 18.06 З 3 50 км 10/10 300 м
[St]
+6.9 +6.5 97 +4 +4 1014.8 1008.4
15 18.06 З 3 50 км 10/10 300 м
[St]
+6.4 +6.1 98 +3 +3 1015.0 1008.6
18 18.06 З 3 50 км 10/10 300 м
[St]
+6.4 +6.2 99 +3 +3 1015.1 1008.6
21 18.06 СЗ 4 50 км {туман} 10/10 200 м
[St]
+6.1 +6.0 99 +2 +2 1015.3 1008.9 +6.0
00 19.06 СЗ 4 50 км {туман} 10/10 200 м
[St]
+7.0 +6.4 96 +3 +3 1015.2 1008.8
03 19.06 СЗ 6 50 км 10/10 200 м
[St]
+7.2 +6.0 92 +3 +3 1014.1 1007.7
06 19.06 СЗ 7 50 км 10/10 200 м
[St]
+6.6 +6.0 96 +1 +1 1013.2 1006.8
09 19.06 СЗ 7-10
{10}
50 км 10/10 200 м
[St]
+5.8 +5.7 99 0 0 1012.7 1006.3 +7.3
12 19.06 СЗ 8-10
{13}
200 м туман ?/? +5.8 +5.3 97 0 0 1012.2 1005.8
15 19.06 СЗ 9-12
{13}
1000 м туман местами 10/10 200 м
[St]
+5.7 +5.6 99 -1 -1 1011.0 1004.6
18 19.06 СЗ 8-11
{13}
2000 м туман местами 10/10 200 м
[St]
+5.9 +5.8 99 0 0 1010.1 1003.7
21 19.06 СЗ 8-10
{12}
50 км 10/10 200 м
[St]
+5.7 +5.6 99 -0 -0 1009.5 1003.1 +5.6
00 20.06 СЗ 7
{11}
50 км 10/10 200 м
[St]
+6.1 +6.0 99 +1 +1 1008.9 1002.5
03 20.06 З 8-11
{12}
50 км 10/10 200 м
[St]
+6.3 +5.7 96 +1 +1 1007.4 1001.0
06 20.06 СЗ 7-10
{12}
50 км 10/10 200 м
[St]
+6.3 +5.6 95 +1 +1 1005.9 999.5
09 20.06 СЗ 8-15
{15}
2000 м туман местами 10/10 200 м
[St]
+5.7 +5.6 99 -0 -0 1005.3 999.0 +6.6
12 20.06 З 5
{12}
2000 м слабая морось туман 10/10 200 м
[St]
+5.5 +5.4 99 +1 +1 1004.8 998.5
15 20.06 З 3 2000 м туман местами {морось} 10/10 200 м
[St]
+5.3 +5.2 99 +2 +2 1003.6 997.2
18 20.06 З 4 4000 м туман местами {морось} 10/10 200 м
[St]
+5.3 +5.2 99 +1 +1 1002.8 996.5
21 20.06 штиль 0 2000 м туман местами {ливн. осадки} 10/10 200 м
[St]
+5.5 +5.4 99 +4 +4 1002.0 995.6 +5.3 1
00 21.06 Ю 2 2000 м слабая морось {ливн. осадки} 10/10 200 м
[St]
+5.9 +5.8 99 +3 +3 1001.4 995.1
03 21.06 ЮВ 5 500 м туман {морось} ?/? +5.9 +5.8 99 +1 +1 1000.5 994.2
06 21.06 ЮВ 4 500 м туман {ливн. осадки, морось} ?/? +5.9 +5.8 99 +2 +2 1000.1 993.8
09 21.06 ЮВ 7-10
{10}
500 м слабый ливневой дождь {туман} туман ?/? +6.1 +6.0 99 +1 +1 999.9 993.5 +6.3 5
12 21.06 В 6
{12}
2000 м ливневой дождь {туман} 10/10 200 м
[Cb cap]
+6.2 +6.1 99 +1 +1 1000.6 994.3
15 21.06 ЮВ 7-11
{13}
10 км слабый ливневой дождь 10/10 200 м
[Cb cap]
+6.0 +5.9 99 +1 +1 1000.0 993.7
18 21.06 В 8-14
{14}
10 км слабый ливневой дождь 10/10 200 м
[Cb cap]
+6.1 +6.0 99 0 0 1000.1 993.7
21 21.06 В 8-12
{14}
10 км слабый ливневой дождь 10/10 200 м
[Cb cap]
+6.0 +5.9 99 0 0 1001.4 995.1 +5.8 21
00 22.06 В 9-14
{15}
2000 м ливневой дождь 10/10 200 м
[Cb cap]
+6.2 +6.1 99 0 0 1003.4 997.1
03 22.06 В 10-18
{18}
2000 м ливневой дождь 10/10 200 м
[Cb cap]
+5.3 +5.2 99 -1 -1 1004.7 998.3
06 22.06 ЮВ 7-12
{18}
2000 м ливневой дождь 10/10 200 м
[Cb cap]
+5.6 +5.5 99 0 0 1006.5 1000.1
09 22.06 В 11-16
{16}
4000 м ливневой дождь 10/10 200 м
[St]
+5.9 +5.6 98 -1 -1 1008.0 1001.6 +6.4 30
12 22.06 В 7-13
{16}
10 км слабый ливневой дождь 10/10 200 м
[Cb cap]
+5.7 +5.3 97 0 0 1009.9 1003.5
15 22.06 В 9-13
{16}
50 км {ливн. осадки} 10/10 200 м
[Cb cap]
+5.7 +5.4 98 -1 -1 1011.5 1005.1
18 22.06 В 9-13
{15}
50 км {ливн. осадки} 10/10 200 м
[Cb cap]
+5.9 +5.2 95 -0 -0 1013.1 1006.7
21 22.06 В 7-10
{14}
50 км 9/8 200 м
[Cb cap Ac trans Ci fib]
+6.2 +5.3 94 +1 +1 1014.4 1007.9 +5.2 2
00 23.06 ЮВ 4
{10}
50 км 9/9 200 м
[Cb cap]
+7.2 +6.0 92 +4 +4 1015.2 1008.8
03 23.06 ЮВ 3 50 км 9/1 600 м
[Sc Ci fib]
+8.1 +5.9 86 +5 +14 опасность
простуды
1014.9 1008.5
06 23.06 ЮВ 2 50 км 9/0
[Ac trans Ci fib]
+8.2 +5.5 83 +6 +10 1014.8 1008.4
09 23.06 С 5 50 км 6/0
[Ci fib]
+6.1 +5.2 94 +2 +2 1014.0 1007.6 +8.2
12 23.06 СЗ 7-10
{11}
500 м туман ?/? +4.6 +4.5 99 -1 -1 1013.9 1007.5
15 23.06 СЗ 7-10
{11}
50 км {туман} 3/3 200 м
[St]
+5.4 +5.0 97 -0 -0 1013.2 1006.8
18 23.06 СЗ 9-11
{11}
200 м туман ?/? +4.9 +4.8 99 -2 -2 1012.8 1006.4
21 23.06 СЗ 8-11
{11}
200 м туман ?/? +5.2 +5.1 99 -1 -1 1013.2 1006.7 +4.2
00 24.06 СЗ 8-10
{12}
200 м туман ?/? +6.0 +5.8 99 0 0 1012.5 1006.1
03 24.06 С 6-10
{11}
4000 м туман местами 10/10 100 м
[St]
+6.9 +6.8 99 +2 +2 1011.9 1005.6
06 24.06 СЗ 9-11
{13}
50 км {туман} 8/8 300 м
[St]
+8.4 +6.4 87 +3 +4 1010.9 1004.5
09 24.06 СЗ 9-12
{14}
50 км 4/4 300 м
[St]
+7.6 +5.9 89 +2 +2 1010.3 1004.0 +9.3
12 24.06 СЗ 11-17
{17}
50 км 9/9 200 м
[St]
+5.9 +5.4 97 -1 -1 1009.8 1003.4

 

Местоположение метеостанции Остров Спафарьева (Магаданская область, Россия): широта 59.15 долгота 149.00 высота над уровнем моря 52 м.

В архиве по умолчанию представлена погода на Остров Спафарьева за последнюю неделю. Архивные данные за месяц целиком и за предыдущие месяцы, начиная с января 2011 года, Вы можете получить, выбрав интересующий диапазон дат из раскрывающегося списка и нажав кнопку "Ввод!".

Внимание! Время в таблицах - всемирное. Для получения местного времени необходимо прибавить поправку, которая на Остров Спафарьева равна 11 ч.

Смотрите также архив погоды в соседних городах и на ближайших метеорологических станциях:

Погода в Талоне (Магаданская область, Россия) (72 км)
Погода в Армани (Магаданская область, Россия) (84 км)
Погода в Магадане (Магаданская область, Россия) (106 км)
Погода в Оле (Магаданская область, Россия) (133 км)
Погода на Мысе Алевина (Магаданская область, Россия) (137 км)
Погода в Палатке (Магаданская область, Россия) (150 км)
Погода в Мадауне (Магаданская область, Россия) (187 км)
Погода в Усть-Омчуге (Магаданская область, Россия) (222 км)
Погода на Мысе Братьев (Магаданская область, Россия) (245 км)
Погода в Талае (Магаданская область, Россия) (286 км)

Пояснения к столбцам:

Ветер - указаны скорость ветра в м/с - средняя за 10 мин, порывы в срок и между сроками (в фигурных скобках) и направление, откуда дует ветер: С - северный, СВ - северо-восточный, В - восточный, ЮВ - юго-восточный, Ю - южный, ЮЗ - юго-западный, З - западный, СЗ - северо-западный.
Видимость - горизонтальная дальность видимости в метрах или километрах. При видимости от 1 до 10 км при отсутствии осадков обычно наблюдается дымка, при ухудшении видимости до 1 км и менее - туман. В сухую погоду видимость может ухудшаться дымом, пылью или мглою.
Явления - указаны атмосферные явления, наблюдавшиеся в срок или в последний час перед сроком; фигурными скобками обозначены явления, наблюдавшиеся между сроками (за 1-3 часа до срока); квадратными скобками обозначены град или гололедные отложения с указанием их диаметра в мм.
Облачность - указаны через наклонную черту общая и нижняя облачность в баллах и высота нижней границы облаков в метрах; квадратными скобками обозначены формы облаков: Ci - перистые, Cs - перисто-слоистые, Cc - перисто-кучевые, Ac - высококучевые, As - высокослоистые, Sc - слоисто-кучевые, Ns - слоисто-дождевые, Cu - кучевые, Cb - кучево-дождевые. Подробнее классификацию облаков см. в Атласе облаков (PDF).
T - Температура воздуха - температура, измеренная на высоте 2 м над землей.
Td - Температура точки росы - температура, при понижении до которой содержащийся в воздухе водяной пар достигнет насыщения.
f - Относительная влажность воздуха - влажноcть воздуха, измеренная на высоте 2 м над землей.
Te - Эффективная температура - температура, которую ощущает одетый по сезону человек в тени. Характеристика душности погоды. При расчете учитывается влияние влажности воздуха и скорости ветра на теплоощущения человека.
Tes - Эффективная температура на солнце - температура, которую ощущает человек, с поправкой на солнечный нагрев. Характеристика знойности погоды. Зависит от высоты солнца над горизонтом, облачности и скорости ветра. Ночью, в пасмурную погоду, а также при ветре 12 м/с и более поправка равна нулю.
P - Атмосферное давление - приведенное к уровню моря атмосферное давление.
Po - Атмосферное давление - измеренное на уровне метеостанции атмосферное давление.
Tmin - Минимальная температура - минимум температуры воздуха на высоте 2 м над землей.
Tmax - Максимальная температура - максимум температуры воздуха на высоте 2 м над землей.
R - Количество осадков - Количество выпавших осадков за период времени, мм. При наведении курсора мыши на число - период времени, за который выпало указанное количество осадков.
R24 - Количество осадков - Количество выпавших осадков за 24 часа, мм.
S - Снежный покров - Высота снежного покрова, см. При наведении курсора мыши на число - состояние снежного покрова и степень покрытия местности в баллах.